Location: Unspecified
(0.0000°N, 0.0000°E)
Time: 11:26:39
(UTC+00:00)

SRMSAT - Pass Details

Date: 17 July 2019
Orbit: 848 x 865 km, 20.0° (Epoch: 07 December)

Event Time Altitude Azimuth Distance (km) Brightness Sun altitude
Rises 20:15:47 0° 267° (W) 3,429 ? -30.0°
Reaches altitude 10° 20:18:34 10° 276° (W) 2,490 ? -30.6°
Maximum altitude 20:23:59 35° 340° (NNW) 1,354 ? -31.8°
Enters shadow 20:25:08 32° 4° (N) 1,424 ? -32.1°
